Regional Weather Roundup
Issued by NWS

Home | Current Version | Previous Version | Graphics & Text | Print | Product List | Glossary On
Versions: 1 2 3 4 5 6 7 8 9 10 11 12 13 14 15 16 17 18 19 20 21 22 23 24 25 26 27 28 29 30 31 32 33 34 35 36 37 38 39 40 41 42 43 44 45 46 47 48 49 50
000
ASUS43 KLOT 011512
RWRIL

ILLINOIS REGIONAL WEATHER ROUNDUP
NATIONAL WEATHER SERVICE CHICAGO/ROMEOVILLE IL
1000 AM CDT WED JUL 01 2015

NOTE: "FAIR" INDICATES FEW OR NO CLOUDS BELOW 12,000 FEET WITH NO
SIGNIFICANT WEATHER AND/OR OBSTRUCTIONS TO VISIBILITY.

* THESE STATIONS ARE NOT UNDER NWS QUALITY CONTROL. THEY ALSO MAY NOT
  REPORT WEATHER SUCH AS PRECIPITATION OR FOG.

ILZ001-002-007-009-015-016-024-011600-
NORTHWEST ILLINOIS

CITY           SKY/WX    TMP DP  RH WIND       PRES   REMARKS
MOLINE         CLOUDY    66  60  81 E8        29.95R HAZE
STERLING*      PTSUNNY   66  57  72 NE9       29.97S
SAVANNA*       CLOUDY    66  57  74 NE7       29.97S
$$

ILZ003-004-008-010-011-017-018-011600-
NORTH CENTRAL ILLINOIS

CITY           SKY/WX    TMP DP  RH WIND       PRES   REMARKS
ROCKFORD       CLOUDY    64  55  72 VRB3      29.99S
FREEPORT*      CLOUDY    63  56  78 E5        30.00R
ROCHELLE*      CLOUDY    62  56  80 NE7       29.99R
DE KALB*       PTSUNNY   61  55  79 N8        29.99S
PERU*          MOSUNNY   65  58  79 E9        29.96F
$$

ILZ005-006-012>014-019>023-011600-
NORTHEAST ILLINOIS

CITY           SKY/WX    TMP DP  RH WIND       PRES   REMARKS
CHICAGO-OHARE  PTSUNNY   63  53  70 NE6       29.97S
CHICAGO-MIDWAY CLOUDY    63  54  72 NE5       29.97S
AURORA         PTSUNNY   64  54  69 NE9       29.97S
LANSING*       PTSUNNY   62  51  66 NE8       29.97S
JOLIET*        CLOUDY    65  57  75 NE6       29.97S
WAUKEGAN       PTSUNNY   62  53  72 VRB3      29.97S
DUPAGE AIRPORT CLOUDY    63  54  72 NE6       29.97R
KANKAKEE*      PTSUNNY   64  58  79 NE7       29.96F
WHEELING       PTSUNNY   63  53  70 N7        29.99R
MORRIS*        PTSUNNY   64  56  74 NE5       29.95S
ROMEOVILLE*    PTSUNNY   64  54  70 NE6       29.97S
NORTHERLY ISL    N/A     59  52  77 NE7         N/A
$$

LMZ740>746-011600-
SOUTHERN LAKE MICHIGAN

STATION/POSITION SKY/WX   TEMP    WIND        PRES    VSBY  WAVE
                          AIR SEA DIR/SP/G                  HT/PER
                          (F)     (DEG/KT/KT) (MB)    (MI)  (FT/S)
HARRISON CRIB              56     360/  9/ 10   N/A
BURNHAM HARBOR             59      50/  6/  8   N/A
CALUMET HARBOR             58     350/  6/  8   N/A
BURNS HARBOR               58      10/  9/ 11 1015.2S
MICHIGAN CITY              58     340/  9/ 12   N/A
MICHIGAN CITY 6N           58 65  360/  6/ 10   N/A           3/ 6
ST. JOSEPH                 58 63                N/A           4/ 5
$$

ILZ025>027-034>036-040-047-049-050-058-095>099-011600-
WEST-CENTRAL ILLINOIS

CITY           SKY/WX    TMP DP  RH WIND       PRES   REMARKS
QUINCY         CLOUDY    75  67  76 S3        29.91S
GALESBURG*     SUNNY     71  65  80 NE5       29.93R
MACOMB*        PTSUNNY   72  68  85 CALM      29.94S
JACKSONVILLE*  PTSUNNY   77  68  72 W5        29.92S
PITTSFIELD*    CLOUDY    76  66  70 W3        29.94R
$$

ILZ028>032-037-038-041>044-048-051>054-059>061-011600-
CENTRAL ILLINOIS

CITY           SKY/WX    TMP DP  RH WIND       PRES   REMARKS
PONTIAC        MOSUNNY   67  61  83 E7        29.96R
BLOOMINGTON    PTSUNNY   68  64  86 E9        29.95R
DECATUR        CLOUDY    70  66  87 E5        29.93R FOG
PEORIA         PTSUNNY   71  63  75 NE8       29.93R
LACON*         SUNNY     65  58  77 E9        29.93F
LINCOLN*       CLOUDY    70  66  87 E3        29.93R FOG
SPRINGFIELD    PTSUNNY   76  69  79 W10       29.92R
TAYLORVILLE    PTSUNNY   73  68  83 W7        29.93R
$$

ILZ033-039-045-046-055>057-062-063-011600-
EAST-CENTRAL ILLINOIS

CITY           SKY/WX    TMP DP  RH WIND       PRES   REMARKS
CHAMPAIGN      CLOUDY    67  63  87 E7        29.94R
DANVILLE*      PTSUNNY   67  60  79 E6        29.92S
RANTOUL*       PTSUNNY   69  61  75 E7        29.94S
MATTOON        PTSUNNY   71  67  87 S3        29.92R
PARIS*         PTSUNNY   69  66  90 E6        29.94S
$$

ILZ079-100>102-011600-
SOUTHWEST ILLINOIS

CITY           SKY/WX    TMP DP  RH WIND       PRES   REMARKS
ALTON          CLOUDY    73  73 100 VRB5      29.94R FOG
BELLEVILLE     CLOUDY    74  72  91 SW7       29.92S
CAHOKIA*       CLOUDY    74  67  78 SW7       29.93S
SPARTA*        CLOUDY    71  68  90 SW6       29.97R
$$

ILZ064>066-069>071-074>076-080>082-084>086-088>090-092>094-011600-
SOUTH-CENTRAL ILLINOIS

CITY           SKY/WX    TMP DP  RH WIND       PRES   REMARKS
CARBONDALE     CLOUDY    72  68  87 SW9       29.97R
CAIRO*         LGT RAIN  72  69  92 W6        30.00R
EFFINGHAM*     PTSUNNY   75  68  79 S8        29.94S
MARION         LGT RAIN  73  70  88 SW9       29.99R
MT. VERNON     CLOUDY    73  66  78 SW7       29.95R
CENTRALIA*     LGT RAIN  71  68  89 W5        29.95S
SALEM*         CLOUDY    76  70  82 W3        29.94R
METROPOLIS*    RAIN      74  73  98 W3        29.99R
$$

ILZ067-068-072-073-078-083-087-091-011600-
SOUTHEAST ILLINOIS

CITY           SKY/WX    TMP DP  RH WIND       PRES   REMARKS
LAWRENCEVILLE  PTSUNNY   74  69  85 S6        29.94R
FLORA*         PTSUNNY   75  69  83 W6        29.94S
FAIRFIELD*     RAIN      72  71  96 CALM      29.93S
HARRISBURG*    CLOUDY    73  72  97 W3        29.97R
ROBINSON*      PTSUNNY   73  68  83 SE3       29.94R
CARMI*         CLOUDY    74  67  80 SW5       29.94R
$$

ABBREVIATIONS USED IN REMARKS
   TC - TEMPERATURE IN CELSIUS
  WCI - WIND CHILL INDEX
   HX - HEAT INDEX
  VSB - VISIBILITY
$$



USA.gov is the U.S. government's official web portal to all federal, state and local government web resources and services.